Location: Unspecified
(0.0000°N, 0.0000°E)
Time: 11:39:22
(UTC+02:00)

Envisat - Visible Passes

Search period start: 27 May 2018 00:00
Search period end: 06 June 2018 00:00
Orbit: 764 x 766 km, 98.2° (Epoch: 26 May)

Date Brightness Start Highest point End Pass type
(mag) Time Alt. Az. Time Alt. Az. Time Alt. Az.
27 May 3.3 22:03:41 60° WSW 22:03:50 61° WSW 22:08:50 10° NNW visible
28 May 3.2 21:26:28 43° ESE 21:27:13 46° ENE 21:32:03 10° N visible
29 May 4.5 20:49:16 15° E 20:50:36 16° ENE 20:53:42 10° NE visible
29 May 4.6 22:29:28 29° W 22:29:28 29° W 22:33:39 10° NW visible
30 May 2.9 21:52:15 73° SSW 21:52:43 83° WSW 21:57:46 10° NNW visible
31 May 3.7 21:15:03 31° ESE 21:16:05 34° ENE 21:20:37 10° NNE visible
31 May 5.6 22:55:15 14° W 22:55:15 14° W 22:57:18 10° WNW visible
01 Jun 4.8 20:37:51 10° E 20:39:29 12° ENE 20:41:14 10° ENE visible
01 Jun 4.1 22:18:02 39° WSW 22:18:13 39° WSW 22:22:54 10° NW visible
02 Jun 2.8 21:40:50 61° SE 21:41:36 73° ENE 21:46:37 10° N visible
03 Jun 4.1 21:03:38 22° ESE 21:04:57 25° ENE 21:09:04 10° NNE visible
03 Jun 5.2 22:43:50 19° W 22:43:50 19° W 22:47:11 10° WNW visible
04 Jun 3.5 22:06:37 51° WSW 22:07:05 53° WSW 22:12:01 10° NNW visible
05 Jun 3.1 21:29:25 45° ESE 21:30:28 53° ENE 21:35:22 10° N visible
